Location: Newark
(52.4787°S, 179.0532°W)
Time: 01:18:20
(UTC+00:00)

Transit 2A Rocket - All Passes

Search period start: 20 November 2019 00:00
Search period end: 30 November 2019 00:00
Orbit: 594 x 909 km, 66.7° (Epoch: 18 November)

Date Brightness Start Highest point End Pass type
(mag) Time Alt. Az. Time Alt. Az. Time Alt. Az.
20 Nov - 01:12:10 10° WSW 01:16:49 22° S 01:21:32 10° SE daylight
20 Nov - 02:56:30 10° SW 03:01:30 25° SSE 03:06:29 10° ESE daylight
20 Nov - 04:39:26 10° SW 04:45:30 54° SE 04:51:21 10° ENE daylight
20 Nov - 06:22:22 10° SW 06:28:09 44° WNW 06:33:40 10° N daylight
20 Nov - 21:01:26 10° N 21:06:53 48° ENE 21:12:42 10° SE daylight
20 Nov - 22:43:58 10° WNW 22:49:38 49° SW 22:55:37 10° SE daylight
21 Nov - 00:28:54 10° WSW 00:33:43 24° SSW 00:38:39 10° SE daylight
21 Nov - 02:13:40 10° SW 02:18:25 23° S 02:23:10 10° ESE daylight
21 Nov - 03:56:52 10° SW 04:02:42 41° SE 04:08:21 10° ENE daylight
21 Nov - 05:39:39 10° SW 05:45:46 65° WNW 05:51:34 10° NNE daylight
21 Nov - 07:24:09 10° WSW 07:27:16 15° WNW 07:30:19 10° NW daylight
21 Nov - 20:19:35 10° N 20:24:35 32° ENE 20:29:53 10° SE daylight
21 Nov - 22:01:07 10° NW 22:06:54 67° SW 22:13:02 10° SE daylight
21 Nov - 23:45:36 10° W 23:50:41 28° SSW 23:55:53 10° SE daylight
22 Nov - 01:30:42 10° SW 01:35:18 21° S 01:39:55 10° SE daylight
22 Nov - 03:14:16 10° SW 03:19:48 33° SSE 03:25:12 10° E daylight
22 Nov - 04:57:01 10° SW 05:03:14 89° ESE 05:09:09 10° NE daylight
22 Nov - 06:40:36 10° WSW 06:45:11 23° WNW 06:49:36 10° NNW daylight
22 Nov - 19:38:12 10° NNE 19:42:24 21° ENE 19:46:48 10° ESE daylight
22 Nov - 21:18:30 10° NW 21:24:17 89° NE 21:30:27 10° SE daylight
22 Nov - 23:02:22 10° W 23:07:42 33° SSW 23:13:13 10° SE daylight
23 Nov - 00:47:35 10° SW 00:52:11 21° S 00:56:48 10° SE daylight
23 Nov - 02:31:36 10° SW 02:36:48 27° SSE 02:41:56 10° E daylight
23 Nov - 04:14:26 10° SW 04:20:36 66° SE 04:26:30 10° NE daylight
23 Nov - 05:57:33 10° SW 06:02:58 34° WNW 06:08:09 10° N daylight
23 Nov - 18:57:37 10° NE 19:00:20 14° E 19:03:06 10° ESE daylight
23 Nov - 20:36:07 10° NNW 20:41:46 62° ENE 20:47:48 10° SE daylight
23 Nov - 22:19:13 10° WNW 22:24:48 41° SW 22:30:37 10° SE daylight
24 Nov - 00:04:21 10° WSW 00:09:03 23° S 00:13:50 10° SE daylight
24 Nov - 01:48:51 10° SW 01:53:46 24° SSE 01:58:38 10° ESE daylight
24 Nov - 03:31:52 10° SW 03:37:52 49° SE 03:43:37 10° ENE daylight
24 Nov - 05:14:44 10° SW 05:20:39 50° WNW 05:26:16 10° NNE daylight
24 Nov - 07:01:13 10° W 07:01:53 10° W 07:02:33 10° WNW daylight
24 Nov - 19:54:02 10° N 19:59:23 42° ENE 20:05:05 10° SE daylight
24 Nov - 21:36:15 10° WNW 21:42:00 55° SW 21:48:03 10° SE daylight
24 Nov - 23:21:03 10° WSW 23:25:58 25° SSW 23:31:00 10° SE daylight
25 Nov - 01:05:58 10° SW 01:10:39 22° S 01:15:20 10° ESE daylight
25 Nov - 02:49:17 10° SW 02:55:01 38° SSE 03:00:35 10° E daylight
25 Nov - 04:32:04 10° SW 04:38:13 73° NW 04:44:03 10° NNE daylight
25 Nov - 06:16:10 10° WSW 06:19:52 17° WNW 06:23:28 10° NW daylight
25 Nov - 19:12:19 10° NNE 19:17:08 28° ENE 19:22:11 10° SE daylight
25 Nov - 20:53:28 10° NW 20:59:18 75° SW 21:05:28 10° SE daylight
25 Nov - 22:37:46 10° W 22:42:57 29° SSW 22:48:17 10° SE daylight
26 Nov - 00:22:56 10° SW 00:27:32 21° S 00:32:09 10° SE daylight
26 Nov - 02:06:41 10° SW 02:12:05 31° SSE 02:17:23 10° E daylight
26 Nov - 03:49:27 10° SW 03:55:39 81° SE 04:01:33 10° NE daylight
26 Nov - 05:32:50 10° SW 05:37:44 26° WNW 05:42:26 10° NNW daylight
26 Nov - 18:31:08 10° NNE 18:34:59 19° ENE 18:38:58 10° ESE daylight
26 Nov - 20:10:55 10° NNW 20:16:43 79° NE 20:22:53 10° SE daylight
26 Nov - 21:54:33 10° W 22:00:00 36° SSW 22:05:39 10° SE daylight
26 Nov - 23:39:47 10° SW 23:44:24 22° S 23:49:05 10° SE daylight
27 Nov - 01:23:59 10° SW 01:29:04 26° SSE 01:34:06 10° ESE daylight
27 Nov - 03:06:52 10° SW 03:12:59 59° SE 03:18:50 10° ENE daylight
27 Nov - 04:49:53 10° SW 04:55:30 39° WNW 05:00:49 10° N daylight
27 Nov - 17:51:08 10° ENE 17:52:56 11° E 17:54:46 10° E daylight
27 Nov - 19:28:38 10° NNW 19:34:15 55° ENE 19:40:13 10° SE daylight
27 Nov - 21:11:28 10° WNW 21:17:08 45° SW 21:23:04 10° SE daylight
27 Nov - 22:56:30 10° WSW 23:01:19 23° SSW 23:06:09 10° SE daylight
28 Nov - 00:41:10 10° SW 00:46:01 23° SSE 00:50:48 10° ESE daylight
28 Nov - 02:24:18 10° SW 02:30:12 44° SE 02:35:53 10° ENE daylight
28 Nov - 04:07:08 10° SW 04:13:08 57° WNW 04:18:49 10° NNE daylight
28 Nov - 05:52:15 10° WSW 05:54:30 12° W 05:56:43 10° WNW daylight
28 Nov - 18:46:40 10° N 18:51:54 37° ENE 18:57:26 10° SE daylight
28 Nov - 20:28:33 10° NW 20:34:22 61° SW 20:40:29 10° SE daylight
28 Nov - 22:13:12 10° WSW 22:18:14 26° SSW 22:23:22 10° SE daylight
28 Nov - 23:58:15 10° SW 00:02:54 22° S 00:07:32 10° SE daylight
29 Nov - 01:41:43 10° SW 01:47:20 35° SSE 01:52:46 10° E daylight
29 Nov - 03:24:28 10° SW 03:30:39 82° NW 03:36:30 10° NNE daylight
29 Nov - 05:08:17 10° WSW 05:12:27 20° WNW 05:16:28 10° NNW daylight
29 Nov - 18:05:07 10° NNE 18:09:41 25° ENE 18:14:27 10° ESE daylight
29 Nov - 19:45:51 10° NW 19:51:42 83° SW 19:57:54 10° SE daylight
29 Nov - 21:29:56 10° W 21:35:14 31° SSW 21:40:41 10° SE daylight
29 Nov - 23:15:10 10° SW 23:19:46 21° S 23:24:23 10° SE daylight
